📊 Raw Sensor Data

Showing records 51726 to 51750 of 85,152 total

ID Distance (ft) Battery V Battery A Int Temp (°F) Int Humid (%) Ext Temp (°F) Solar V RSSI SNR Time Stamp
33439 14.5 3.86 -5 43 38 46 0.00 -70 8 02/26/2025 12:00 AM
33438 14.5 3.91 -5 43 39 47 0.10 -70 9 02/25/2025 11:45 PM
33437 14.5 3.86 -5 44 39 47 0.00 -70 8 02/25/2025 11:30 PM
33436 14.5 3.87 -5 43 39 47 0.00 -70 8 02/25/2025 11:15 PM
33435 14.5 3.92 -5 44 39 47 0.00 -70 8 02/25/2025 11:00 PM
33434 14.6 3.87 -5 46 38 48 0.00 -71 8 02/25/2025 10:45 PM
33433 14.6 3.92 -5 47 38 50 0.00 -71 8 02/25/2025 10:30 PM
33432 14.5 3.87 -5 47 38 49 0.00 -70 8 02/25/2025 10:15 PM
33431 14.6 3.92 -5 47 38 48 0.00 -70 8 02/25/2025 10:00 PM
33430 14.5 3.87 -5 48 38 51 0.00 -70 8 02/25/2025 09:45 PM
33429 14.6 3.87 -5 48 39 51 0.10 -70 9 02/25/2025 09:15 PM
33428 14.6 3.87 -5 48 39 51 0.00 -69 8 02/25/2025 09:00 PM
33427 14.6 3.87 -5 49 39 52 0.00 -69 8 02/25/2025 08:45 PM
33426 14.5 3.87 -34 50 39 52 0.00 -70 8 02/25/2025 08:30 PM
33425 14.5 3.87 -5 50 40 54 0.00 -69 8 02/25/2025 08:15 PM
33424 14.6 3.92 -5 51 40 54 0.00 -70 8 02/25/2025 08:00 PM
33423 14.6 3.87 -5 51 40 54 0.00 -69 8 02/25/2025 07:45 PM
33422 14.6 3.87 -5 52 40 55 0.00 -69 8 02/25/2025 07:30 PM
33421 14.6 3.92 -5 52 41 55 0.00 -69 8 02/25/2025 07:15 PM
33420 14.6 3.87 -5 53 41 55 0.00 -70 8 02/25/2025 07:00 PM
33419 14.6 3.87 -5 54 42 55 0.00 -70 8 02/25/2025 06:45 PM
33418 14.6 3.88 -5 57 43 57 0.70 -70 8 02/25/2025 06:15 PM
33417 14.6 3.87 -10 59 43 58 4.20 -69 8 02/25/2025 06:00 PM
33416 14.7 3.94 0 62 42 60 4.50 -70 8 02/25/2025 05:45 PM
33415 14.7 3.92 17 65 41 61 4.50 -70 8 02/25/2025 05:30 PM